Weather History for Burley, ID

Change the Weather History Date:

Friday, November 1, 2013

  Actual Average Record
Temperature  
Mean Temperature 44 °F 42 °F  
Max Temperature 56 °F 53 °F 72 °F (1965)
Min Temperature 31 °F 30 °F 8 °F (2002)
Degree Days  
Heating Degree Days 21 23  
Month to date heating degree days 21 23  
Since 1 July heating degree days 770 831  
Cooling Degree Days 0 0  
Month to date cooling degree days 0 0  
Year to date cooling degree days 642 365  
Moisture  
Dew Point 35 °F    
Average Humidity 70    
Maximum Humidity 96    
Minimum Humidity 43    
Precipitation  
Precipitation 0.00 in 0.03 in 0.18 in (1964)
Month to date precipitation 0.00 0.03  
Year to date precipitation 4.33 8.10  
Sea Level Pressure  
Sea Level Pressure 30.23 in    
Wind  
Wind Speed 6 mph (WSW)    
Max Wind Speed 16 mph    
Max Gust Speed 23 mph    
Visibility 10 miles    
Events      
T = Trace of Precipitation, MM = Missing Value Source: NWS Daily Summary

Daily Weather History Graph

Daily Weather History Graph

Search for Another Location

Airport:

Trip Planner

Search our weather history database for the weather conditions in past years. The results will help you decide how hot, cold, wet, or windy it might be!

Date:

Astronomy

Nov. 01, 2013 Rise Set
Actual Time 8:09 AM MDT 6:27 PM MDT
Civil Twilight 7:39 AM MDT 6:56 PM MDT
Nautical Twilight 7:06 AM MDT 7:30 PM MDT
Astronomical Twilight 6:33 AM MDT 8:02 PM MDT
Moon 6:03 AM MDT 5:24 PM MDT
Length of Visible Light 11h 17m
Length of Day
10h 18m
Waning Crescent, 4% of the Moon is Illuminated
Nov 1
Waning Crescent
Nov 3
New
Nov 9
First Quarter
Nov 17
Full
Nov 25
Last Quarter

Hourly Weather History & Observations

Time (MDT) Temp. Windchill Dew Point Humidity Pressure Visibility Wind Dir Wind Speed Gust Speed Precip Events Conditions
12:53 AM 44.1 °F 37.4 °F 37.9 °F 79% 30.14 in 10.0 mi West 13.8 mph 20.7 mph N/A   Clear
1:53 AM 43.0 °F 35.7 °F 37.0 °F 80% 30.16 in 10.0 mi WSW 15.0 mph - N/A   Clear
2:53 AM 42.1 °F 35.2 °F 36.0 °F 79% 30.18 in 10.0 mi WSW 12.7 mph - N/A   Clear
3:53 AM 41.0 °F 33.9 °F 36.0 °F 82% 30.19 in 10.0 mi WSW 12.7 mph - N/A   Scattered Clouds
4:53 AM 44.1 °F 38.6 °F 37.0 °F 76% 30.20 in 10.0 mi WSW 10.4 mph - N/A   Overcast
5:53 AM 41.0 °F 37.1 °F 36.0 °F 82% 30.23 in 10.0 mi West 5.8 mph - N/A   Mostly Cloudy
6:53 AM 37.9 °F 34.4 °F 35.1 °F 89% 30.26 in 10.0 mi West 4.6 mph - N/A   Clear
7:53 AM 35.1 °F 32.2 °F 34.0 °F 96% 30.28 in 10.0 mi ESE 3.5 mph - N/A   Clear
8:53 AM 34.0 °F 31.0 °F 32.0 °F 92% 30.31 in 10.0 mi ESE 3.5 mph - N/A   Scattered Clouds
9:53 AM 39.0 °F 35.7 °F 37.0 °F 93% 30.32 in 10.0 mi SE 4.6 mph - N/A   Clear
10:53 AM 44.1 °F 42.5 °F 37.9 °F 79% 30.30 in 10.0 mi Variable 3.5 mph - N/A   Clear
11:53 AM 50.0 °F - 37.9 °F 63% 30.28 in 10.0 mi West 8.1 mph - N/A   Clear
12:53 PM 53.1 °F - 37.0 °F 55% 30.27 in 10.0 mi WSW 11.5 mph - N/A   Clear
1:53 PM 55.0 °F - 35.1 °F 47% 30.25 in 10.0 mi West 10.4 mph - N/A   Clear
2:53 PM 55.0 °F - 34.0 °F 45% 30.22 in 10.0 mi West 8.1 mph - N/A   Clear
3:53 PM 55.9 °F - 34.0 °F 44% 30.20 in 10.0 mi Variable 4.6 mph - N/A   Clear
4:53 PM 55.0 °F - 33.1 °F 43% 30.20 in 10.0 mi Variable 5.8 mph - N/A   Clear
5:53 PM 53.1 °F - 34.0 °F 48% 30.19 in 10.0 mi WNW 3.5 mph - N/A   Clear
6:53 PM 46.0 °F - 35.1 °F 66% 30.21 in 10.0 mi Calm Calm - N/A   Clear
7:53 PM 42.1 °F - 35.1 °F 76% 30.22 in 10.0 mi Calm Calm - N/A   Clear
8:53 PM 39.0 °F - 33.1 °F 79% 30.22 in 10.0 mi Calm Calm - N/A   Clear
9:53 PM 35.1 °F 32.2 °F 30.0 °F 82% 30.22 in 10.0 mi SSW 3.5 mph - N/A   Clear
10:53 PM 34.0 °F 31.0 °F 28.0 °F 79% 30.21 in 10.0 mi SSW 3.5 mph - N/A   Clear
11:53 PM 34.0 °F - 28.0 °F 79% 30.18 in 10.0 mi Calm Calm - N/A   Clear